Probability
4 4 4 2 0 0 0 1 3 3 3 2 1 0 0 1 2 2 1 1 2 2 3 6 7 6 5 4 4 6 8 9 7 6 6 6 5 4 5 5 5 5 5
4 4 4 2 1 1 1 1 1 1 2 1 1 1 1 1 1 1 1 1 3 4 6 8 8 8 8 5 5 7 9 9 8 7 6 6 5 4 4 4 4 4 4
4 4 3 1 1 1 1 0 0 0 1 1 2 2 2 2 2 1 2 3 4 6 8 9 9 10 9 6 5 7 9 10 9 9 7 6 4 3 3 3 3 4 4
3 3 2 1 0 1 1 1 1 1 2 2 2 2 3 3 2 2 4 5 5 6 7 7 8 8 7 4 4 6 8 10 10 9 8 6 5 4 4 4 4 4 5
4 4 3 1 1 1 1 2 2 3 3 2 1 1 1 2 2 3 5 6 7 7 6 5 5 4 2 1 1 4 7 9 10 10 9 7 6 5 5 4 4 4 4
7 6 4 3 2 1 1 2 2 3 3 2 0 0 0 0 1 3 5 7 9 8 6 5 3 2 1 1 1 2 5 8 9 9 8 7 6 5 4 4 3 3 3
10 9 7 6 5 3 3 3 3 3 3 2 1 0 0 0 1 2 4 7 8 7 6 5 4 3 2 3 3 4 5 7 7 7 6 5 5 4 4 3 3 3 3
12 11 10 9 7 6 5 6 5 4 3 2 2 2 2 1 1 1 3 6 7 6 5 5 4 3 3 4 5 5 6 7 6 4 4 3 3 3 3 2 3 3 3
12 11 10 9 8 7 6 6 6 4 3 3 5 5 4 4 2 0 2 5 5 5 5 3 3 2 3 4 5 4 4 5 5 4 3 2 1 1 1 1 2 2 2
10 10 10 9 7 7 7 7 7 6 5 5 6 6 6 5 2 0 1 3 5 5 5 4 2 1 1 2 3 2 2 3 4 5 4 3 2 1 1 1 2 3 3
9 9 9 8 6 7 8 8 8 8 6 6 6 6 5 3 1 0 1 2 4 4 4 4 2 0 0 1 1 1 1 2 3 4 4 4 4 3 3 2 3 4 5
9 8 7 6 6 7 8 8 8 8 6 6 6 5 2 1 0 0 0 1 2 2 2 3 2 1 0 0 0 0 0 1 1 3 4 4 5 5 4 4 4 5 6
9 8 7 6 6 6 7 7 8 7 6 5 5 3 1 0 0 0 0 0 0 0 1 2 2 1 0 0 0 0 0 0 1 2 3 3 4 4 5 5 4 4 5
7 7 8 8 7 7 7 8 9 8 7 6 5 4 2 1 0 0 0 0 0 0 0 1 1 0 0 0 0 0 0 0 0 1 2 3 3 3 4 4 4 3 3
7 7 7 8 8 7 8 8 8 8 6 5 5 4 3 1 0 0 0 0 0 0 0 1 1 0 0 0 0 0 0 0 0 0 1 2 3 2 3 4 4 3 3
8 9 9 9 9 8 7 6 5 4 3 2 3 3 2 1 0 0 0 0 0 0 1 2 2 1 1 1 1 1 0 0 0 0 0 1 2 3 3 4 4 4 4
11 12 12 11 10 9 8 6 4 1 0 0 1 1 1 1 0 0 0 0 0 0 1 2 3 3 3 3 2 2 1 0 0 0 0 1 2 3 3 3 3 4 5
11 11 12 12 11 10 9 8 5 2 0 0 0 0 0 0 0 0 0 0 0 0 0 1 2 3 3 3 3 3 2 1 0 0 0 0 1 2 2 3 3 3 4
8 9 11 12 12 10 9 8 6 3 1 0 0 0 0 0 0 0 0 0 0 0 0 0 1 1 3 3 3 3 2 1 0 0 0 0 0 1 1 2 3 3 3
7 8 10 12 12 11 9 8 6 3 1 0 0 0 0 0 0 0 0 0 0 0 0 0 0 1 3 4 3 3 2 1 0 0 0 0 0 0 0 0 1 2 3
7 8 10 12 12 11 9 7 6 4 1 0 0 0 0 0 0 0 0 0 0 0 0 0 0 1 2 4 4 3 2 1 0 0 0 0 0 0 0 0 0 1 2
6 8 10 10 10 9 7 6 5 4 1 0 0 0 0 0 0 0 0 0 0 0 0 0 0 0 1 3 3 3 2 1 0 0 0 0 0 0 0 0 0 1 2
5 6 7 7 7 6 5 4 4 3 1 0 0 0 0 0 0 0 0 0 0 0 0 0 0 0 0 1 3 3 2 1 0 0 0 0 0 0 0 0 0 0 1
5 5 5 5 5 5 4 3 3 2 1 0 0 0 0 0 0 0 0 0 0 0 0 0 0 0 0 1 2 2 1 0 0 0 0 0 0 0 0 0 0 0 0
5 4 4 4 4 4 3 3 3 2 1 0 0 0 0 0 0 0 0 0 0 0 0 0 0 0 0 0 1 1 0 0 0 0 0 0 0 0 0 0 0 0 0
4 4 3 3 3 3 3 3 3 2 1 0 0 0 0 0 0 0 0 0 0 0 0 0 0 0 0 0 0 0 0 0 0 0 0 0 0 0 0 0 0 0 0
Wind_Speed
6 5 5 4 4 3 3 3 3 2 2 2 2 1 1 1 1 1 1 1 1 1 1 2 3 2 2 2 2 2 2 3 3 3 2 2 2 2 1 1 1 1 2
6 5 5 4 4 4 4 3 3 3 3 3 2 2 1 1 1 1 1 1 1 2 2 2 3 2 2 2 2 3 3 3 3 3 2 1 2 2 1 1 1 1 2
5 5 4 4 4 4 4 4 3 3 3 2 2 2 2 1 1 2 2 2 2 2 2 2 3 2 3 2 2 3 3 3 2 2 2 1 1 1 1 1 1 1 2
5 5 5 5 5 5 4 4 4 4 4 3 3 3 2 2 2 2 2 2 2 2 2 2 3 3 3 3 3 3 2 2 2 2 2 1 1 1 1 1 1 1 2
5 5 5 4 4 4 4 4 3 4 4 3 2 2 2 2 2 2 2 2 2 2 2 3 3 3 3 3 3 2 2 2 2 2 2 1 2 1 2 2 2 2 2
5 4 3 3 3 3 3 3 3 3 3 3 2 2 3 2 2 3 3 3 2 2 3 3 3 3 3 3 3 3 3 3 3 3 2 3 4 3 2 2 2 1 2
4 3 3 3 3 3 3 3 3 3 3 3 3 3 3 3 3 3 3 2 2 2 3 2 2 2 2 2 3 3 3 3 5 4 4 5 4 4 4 4 3 3 3
4 3 3 3 3 2 3 3 3 3 3 3 3 3 3 3 2 2 1 1 2 2 3 2 2 2 2 2 2 2 3 3 4 4 4 5 5 4 5 4 4 2 1
4 4 4 4 4 3 3 4 3 3 2 2 2 2 2 3 3 2 2 1 1 2 2 2 2 2 3 2 1 2 3 3 3 4 4 4 4 4 4 3 2 2 2
5 4 4 4 5 5 4 3 2 3 3 2 2 2 3 3 3 2 2 1 1 2 2 2 2 2 3 2 1 2 3 4 3 3 2 2 2 3 5 5 4 3 2
4 3 3 4 4 3 2 2 2 2 2 2 2 2 2 3 3 3 3 2 2 2 2 2 2 3 4 3 2 3 4 4 3 2 2 1 1 1 2 2 3 3 3
4 3 3 3 3 3 3 2 2 2 2 1 1 2 2 2 3 3 3 2 2 2 2 2 2 4 3 2 2 3 4 2 1 1 1 1 1 1 1 2 2 2 2
4 3 3 3 2 2 3 3 2 2 2 2 1 2 2 1 2 3 3 3 2 1 2 3 4 4 2 2 2 2 1 1 1 1 2 2 2 1 1 1 1 1 1
4 3 3 3 2 2 2 2 2 2 2 2 2 2 2 1 1 1 1 1 1 1 1 2 2 1 1 1 2 1 1 1 1 2 2 2 1 1 1 1 1 1 0
4 3 3 2 2 2 2 1 2 2 3 3 3 2 2 2 3 2 2 1 1 2 1 0 1 1 1 1 2 1 1 1 1 1 1 1 1 1 1 1 1 1 2
3 3 2 2 2 2 2 1 2 1 0 1 2 2 2 3 2 2 2 3 3 3 2 1 1 1 1 1 2 2 2 2 2 2 2 2 2 2 1 1 1 2 2
5 4 3 3 3 3 3 2 1 2 3 2 0 1 2 2 2 2 2 2 2 3 2 2 2 2 2 2 2 2 2 2 2 2 2 2 2 2 2 2 2 2 2
4 4 4 3 3 3 3 2 2 2 0 1 2 1 1 1 1 1 2 2 1 1 1 2 2 2 2 2 2 2 2 2 2 2 2 2 2 2 2 2 2 2 2
4 3 3 3 3 3 2 2 2 2 1 0 1 2 1 1 0 0 2 1 2 2 2 2 2 2 2 2 3 2 2 2 2 2 2 2 2 2 2 3 3 3 3
3 4 4 4 3 3 3 3 2 2 1 1 1 1 1 1 1 0 1 1 2 2 2 3 3 3 3 2 2 2 2 2 2 3 3 3 2 2 3 3 3 3 3
2 3 5 4 3 3 3 3 3 3 2 2 2 2 2 1 2 2 2 2 3 3 3 3 3 3 3 3 2 3 3 3 2 2 2 2 2 2 2 3 3 3 2
3 3 3 3 3 3 3 3 2 2 2 2 1 1 1 1 2 2 2 2 3 3 3 3 3 3 3 3 3 3 3 3 3 3 3 2 2 2 2 2 2 2 2
3 3 3 3 3 3 2 2 2 2 2 1 1 1 1 1 2 2 2 3 2 2 2 2 3 3 3 3 3 3 3 3 3 3 3 3 2 2 2 3 3 3 2
3 3 3 3 3 2 2 2 2 2 2 1 1 1 1 2 2 3 3 2 2 2 2 2 2 4 4 3 2 2 3 3 3 3 4 3 3 3 3 3 3 3 3
3 3 3 3 3 2 2 2 2 2 2 2 2 2 2 2 2 2 2 2 2 2 2 2 2 3 4 4 3 3 3 3 3 3 3 3 3 3 3 3 3 3 3
3 3 3 3 2 2 2 2 2 2 2 2 2 2 2 2 2 2 2 2 2 2 2 2 3 3 4 3 4 3 2 2 2 3 3 2 3 3 3 3 4 3 3
Wind_Direction
183 182 184 183 182 175 180 187 185 181 177 183 190 188 197 210 242 219 242 234 229 268 277 250 254 243 231 227 213 208 211 204 235 262 251 262 238 261 277 257 255 255 262
181 177 180 181 178 184 194 195 182 182 188 193 189 181 199 221 235 226 247 252 235 255 268 268 274 264 252 248 228 223 220 213 218 250 263 267 253 255 259 256 274 269 261
173 172 177 185 189 198 202 197 189 188 192 193 184 189 201 212 230 238 231 238 238 249 256 259 268 259 260 256 245 241 232 221 214 229 258 257 261 264 269 284 289 296 281
166 172 182 194 199 204 202 197 194 194 195 200 200 202 204 205 217 231 238 244 251 262 261 258 262 252 250 252 249 243 231 217 205 217 243 256 255 254 228 261 287 292 283
168 180 194 194 192 193 195 194 193 193 196 196 192 198 205 205 219 227 240 246 252 268 276 273 272 268 257 249 252 241 226 217 212 216 235 242 243 228 230 225 248 271 269
174 193 195 183 185 194 198 192 187 189 182 176 188 202 213 223 239 237 232 243 245 251 270 283 286 282 289 277 266 243 218 212 218 221 232 234 238 231 225 219 218 242 262
180 189 186 182 188 196 188 175 179 178 176 189 199 203 223 234 231 239 235 225 237 248 257 271 293 303 295 291 285 271 252 234 221 217 226 240 237 223 210 216 215 221 238
177 185 183 180 187 181 170 185 188 181 189 201 207 209 222 251 244 241 233 218 239 252 252 249 258 283 287 282 278 286 274 256 240 232 231 239 241 225 211 214 216 227 262
178 188 189 186 186 184 189 198 191 184 198 209 210 211 221 255 248 217 169 197 237 266 268 266 263 273 283 285 266 284 296 293 275 249 240 252 248 228 199 176 180 199 245
194 196 190 186 188 192 197 193 185 185 201 203 218 227 225 244 247 217 179 185 225 266 278 273 262 281 293 273 251 261 282 293 301 302 288 284 257 223 197 197 193 197 219
186 178 183 190 192 187 177 177 175 181 188 201 221 238 232 239 243 229 201 195 218 254 272 281 291 295 283 267 252 245 259 276 291 289 286 277 253 206 194 196 197 200 207
165 170 178 182 185 168 159 168 165 167 178 204 231 261 257 244 232 233 224 217 210 221 258 283 289 293 280 269 269 276 264 265 263 272 267 269 262 244 231 211 195 202 219
152 167 173 167 164 159 160 161 156 160 175 201 224 246 264 260 238 226 221 220 228 228 257 279 289 297 295 286 299 307 271 251 262 268 270 277 277 258 243 224 212 185 200
158 169 165 159 156 147 150 161 167 175 183 197 218 235 251 259 251 224 215 213 230 249 273 291 296 286 313 325 328 326 306 284 261 270 283 284 284 252 227 228 223 196 222
163 166 163 157 152 145 141 161 185 192 194 199 218 225 230 250 257 241 221 227 222 220 208 341 8 7 7 353 334 320 311 305 282 281 279 286 283 271 268 243 225 209 213
159 169 165 157 157 154 149 89 38 60 50 218 217 213 234 234 243 244 244 238 219 185 153 194 236 256 268 279 285 295 296 288 285 280 275 280 276 270 269 254 229 222 233
168 175 173 170 168 169 168 158 128 26 35 33 358 219 221 228 236 239 231 202 180 161 168 206 224 240 254 259 264 269 280 284 280 275 278 276 273 264 257 254 242 239 246
169 171 171 177 176 177 179 173 168 166 169 345 346 326 282 256 248 211 165 122 117 170 212 231 241 246 253 255 257 261 274 282 273 270 272 274 268 262 257 252 244 244 252
169 173 173 168 169 169 171 165 164 175 179 233 331 343 351 346 319 273 161 173 205 226 235 245 250 252 256 255 253 253 254 263 272 270 269 271 266 265 262 250 242 238 237
179 175 163 160 161 163 167 170 176 185 192 213 245 273 326 19 356 305 230 233 225 232 238 243 249 250 254 254 257 257 255 256 265 267 267 265 263 257 263 259 249 242 237
173 171 163 161 167 172 176 184 191 192 202 218 245 255 233 232 242 245 235 236 236 236 239 244 248 250 251 251 249 249 249 254 256 260 266 269 268 263 262 260 255 249 245
173 178 178 179 174 176 179 183 188 194 206 221 255 270 238 241 253 255 255 249 247 248 244 241 250 255 251 246 241 241 242 247 253 254 256 261 262 261 261 262 258 255 252
174 175 172 168 165 165 167 172 179 189 207 220 227 247 258 262 267 270 271 270 265 261 264 260 258 263 262 255 246 236 238 247 250 245 243 250 254 255 256 260 262 254 256
172 173 169 165 160 165 174 183 189 191 197 212 219 229 246 260 270 279 283 285 279 276 270 266 266 264 259 254 249 247 245 250 248 237 231 235 242 246 247 250 253 249 245
164 163 162 164 169 177 188 196 202 201 203 215 224 238 255 263 279 290 293 290 289 289 291 287 283 281 264 255 254 259 262 246 238 244 230 228 238 246 250 251 253 253 246
165 165 167 167 172 180 188 197 206 209 209 219 233 241 250 264 280 288 295 300 302 301 298 295 292 292 275 256 256 257 251 242 234 232 226 219 232 248 253 253 258 256 246